TimeMST,TemperatureF,Dew PointF,Humidity,Sea Level PressureIn,VisibilityMPH,Wind Direction,Wind SpeedMPH,Gust SpeedMPH,PrecipitationIn,Events,Conditions,WindDirDegrees,DateUTC
12:54 AM,28.0,14.0,56,30.07,10.0,Calm,Calm,-,N/A,,Clear,0,2013-04-26 07:54:00
1:54 AM,26.1,14.0,60,30.11,10.0,Calm,Calm,-,N/A,,Clear,0,2013-04-26 08:54:00
2:54 AM,25.0,14.0,63,30.12,10.0,Calm,Calm,-,N/A,,Clear,0,2013-04-26 09:54:00
3:54 AM,24.1,14.0,65,30.13,10.0,Calm,Calm,-,N/A,,Clear,0,2013-04-26 10:54:00
4:54 AM,24.1,15.1,69,30.14,10.0,Calm,Calm,-,N/A,,Clear,0,2013-04-26 11:54:00
5:54 AM,24.1,15.1,69,30.16,9.0,Calm,Calm,-,N/A,,Clear,0,2013-04-26 12:54:00
6:54 AM,32.0,19.0,59,30.18,8.0,Calm,Calm,-,N/A,,Clear,0,2013-04-26 13:54:00
7:54 AM,50.0,26.1,39,30.16,10.0,WSW,6.9,-,N/A,,Clear,240,2013-04-26 14:54:00
8:54 AM,55.9,21.9,27,30.15,10.0,Calm,Calm,-,N/A,,Clear,0,2013-04-26 15:54:00
9:54 AM,59.0,18.0,20,30.15,10.0,Variable,5.8,-,N/A,,Clear,0,2013-04-26 16:54:00
10:54 AM,63.0,16.0,16,30.15,10.0,Calm,Calm,-,N/A,,Clear,0,2013-04-26 17:54:00
11:54 AM,64.9,14.0,14,30.15,10.0,Variable,5.8,19.6,N/A,,Clear,0,2013-04-26 18:54:00
12:54 PM,66.9,10.0,11,30.14,10.0,West,8.1,23.0,N/A,,Clear,270,2013-04-26 19:54:00
1:54 PM,66.0,3.0,8,30.16,10.0,SW,8.1,17.3,N/A,,Scattered Clouds,220,2013-04-26 20:54:00
2:54 PM,66.9,7.0,10,30.14,10.0,NW,11.5,19.6,N/A,,Partly Cloudy,310,2013-04-26 21:54:00
3:54 PM,68.0,1.0,7,30.14,10.0,NNW,11.5,18.4,N/A,,Scattered Clouds,330,2013-04-26 22:54:00
4:54 PM,66.0,1.0,8,30.14,10.0,NW,9.2,18.4,N/A,,Clear,310,2013-04-26 23:54:00
5:54 PM,64.0,5.0,10,30.16,10.0,Variable,5.8,-,N/A,,Clear,0,2013-04-27 00:54:00
6:54 PM,60.1,5.0,11,30.15,10.0,Calm,Calm,-,N/A,,Clear,0,2013-04-27 01:54:00
7:54 PM,41.0,9.0,27,30.17,10.0,Calm,Calm,-,N/A,,Clear,0,2013-04-27 02:54:00
8:54 PM,37.9,9.0,30,30.19,10.0,NE,3.5,-,N/A,,Clear,50,2013-04-27 03:54:00
9:54 PM,34.0,8.1,34,30.19,10.0,Calm,Calm,-,N/A,,Clear,0,2013-04-27 04:54:00
10:54 PM,32.0,7.0,35,30.19,10.0,Calm,Calm,-,N/A,,Clear,0,2013-04-27 05:54:00
11:54 PM,28.9,6.1,38,30.20,10.0,Calm,Calm,-,N/A,,Clear,0,2013-04-27 06:54:00